NOAA 16 DEB, 41374

Orbit data source: Space-Track

NOAA 16 DEB, 41374 is space debris in SSO originally from a launch on Thu, 21 Sep 2000 UTC launched from the Air Force Western Test Range (AFWTR). Debris objects in space refer to the collection of defunct objects orbiting the Earth. Examples of debris include non-operational satellites, rocket bodies, and fragments generated from explosions, collisions, or faulty payload assembly.

Loading next visibility...
Identifier
41374, 2000-055JT
Orbit
SSO
Country
Flag of USUS
Related business
Manufacturer
Unknown
Mission
Spacecraft
Bus & Motor
Unknown
Mass
Unknown
Launch date (UTC)
2000-09-21 (25 years ago)
Launch vehicle
Unknown
Launch site
Air Force Western Test Range (AFWTR)
Object type
Payload
Rocket body
Debris
Shape & HBR
Unknown
Radar Cross Section
Small (<0.1 m²)

Expand to show TLE details & history
Last TLE update: 1 day ago

TLE from 1 day ago
0 NOAA 16 DEB
1 41374U 00055JT  25261.09807535  .00002311  00000-0  11424-2 0  9993
2 41374  98.7314 309.7048 0033509 225.4093 134.4346 14.18053016496877
Epoch: 2025-09-18T02:21Z
TLE epoch observation values (Epoch: 2025-09-18T02:21:13.71Z)
Latitude
-0.0001°
Longitude
-82.86686°
Altitude
851.815 km
Speed
7.418 km/s
True Right ascension
20h 38m 49s
True Declination
0° 00' 00"
Sunlit
Object was in full shadow at epoch
Visualization orbit readout
Latitude
Unknown
Longitude
Unknown
Altitude
Unknown
Speed
Unknown
Apparent Right ascension
Unknown
Apparent Declination
Unknown
Sunlit
N/A
Visualization observer readout
Local Sidereal Time
22:05:49
Azimuth
Unknown
Elevation
Unknown
Doppler factor
Unknown
Orbital elements
Apogee altitude
853.258 km
Perigee altitude
804.956 km
Semi-major axis
7,207.244 km
Eccentricity
0.00335
Inclination
98.7314°
RAAN
309.7048°
Arg. of periapsis
225.4093°
True anomaly
134.70798°
Mean anomaly
134.4346°
Eccentric anomaly
134.57137°
Mean motion
3.54723 °/min
Orbital period
101.49 mins
BSTAR
0.0011424
Loading maneuver chart data...
Computing Atmospheric mass density...
Loading historical data...
Loading historical data...
Loading historical data...
Loading historical data...
Loading historical data...
Loading historical data...
Loading historical data...

Documentation

Showing up to 5 results
|